Flag for U.S.A. Weather past 2 weeks in Atlanta, Georgia, U.S.A.

Now
67 °F

Passing clouds.


Feels Like: 67 °F
Forecast: 51 / 71 °F
Wind: 9 mph from Southeast

Location: Fulton County Airport-Brown Field

Current Time: Apr 28, 2015 at 1:05:17 PM

Latest Report: Apr 28, 2015 at 11:53 AM


Visibility: 10 mi

Pressure: 29.93 "Hg

Humidity: 37%

Dew point: 40 °F

Location of AtlantaLocation

Historic Weather in Atlanta — Graph

°F

Atlanta temperature yesterday

Maximum temperature yesterday: 70 °F (at 2:53 PM)
Minimum temperature yesterday: 50 °F (at 6:53 AM)
Average temperature yesterday: 59 °F

Past Weeks' High & Low Weather Summary

 TemperatureHumidityPressure
High82 °F (Apr 14, 2:53 PM)97% (Apr 13, 9:53 PM)30.27 "Hg (Apr 13, 9:53 PM)
Low44 °F (Apr 22, 4:53 AM)19% (Apr 24, 3:53 PM)29.60 "Hg (Apr 26, 3:53 AM)
Average64 °F72%29.93 "Hg
* Reported Apr 13 11:53 AM — Apr 28 11:53 AM, Atlanta, Weather by CustomWeather, © 2015

Note: Actual official high and low records may vary slightly from our data, if they occured in-between our weather recording intervals... More about our weather records

Advertising

Atlanta weather history for previous 24 hours

 ConditionsComfort  
Time TempWeatherWind HumidityBarometerVisibility
11:53 AM
Tue, Apr 28
67 °FPassing clouds.9 mph37%29.93 "Hg10 mi
10:53 AM65 °FPassing clouds.12 mph36%29.93 "Hg10 mi
9:53 AM61 °FPartly sunny.14 mph39%29.94 "Hg10 mi
8:53 AM59 °FSunny.13 mph44%29.94 "Hg10 mi
7:53 AM56 °FSunny.8 mph49%29.93 "Hg10 mi
6:53 AM55 °FClear.8 mph55%29.90 "Hg10 mi
5:53 AM50 °FClear.5 mph80%29.88 "Hg10 mi
4:53 AM50 °FClear.No wind83%29.87 "Hg10 mi
3:53 AM51 °FClear.No wind80%29.88 "Hg10 mi
2:53 AM52 °FClear.No wind77%29.87 "Hg10 mi
1:53 AM51 °FClear.No wind80%29.87 "Hg10 mi
12:53 AM52 °FClear.No wind75%29.87 "Hg10 mi
11:53 PM
Mon, Apr 27
53 °FClear.No wind72%29.88 "Hg10 mi
10:53 PM54 °FClear.3 mph67%29.88 "Hg10 mi
9:53 PM59 °FClear.No wind48%29.88 "Hg10 mi
8:53 PM61 °FSunny.3 mph46%29.86 "Hg10 mi
7:53 PM62 °FSunny.3 mph46%29.84 "Hg10 mi
6:53 PM64 °FSunny.8 mph41%29.85 "Hg10 mi
5:53 PM65 °FSunny.7 mph39%29.85 "Hg10 mi
4:53 PM66 °FSunny.8 mph34%29.85 "Hg10 mi
3:53 PM68 °FSunny.10 mph32%29.85 "Hg10 mi
2:53 PM70 °FPassing clouds.9 mph29%29.86 "Hg10 mi
1:53 PM68 °FSunny.7 mph35%29.86 "Hg10 mi
Weather by CustomWeather, © 2015

See weather overviewHow to use our weather pages